Weather History for Mount Pleasant, MI

Change the Weather History Date:

Sunday, February 10, 2013

  Actual Average (KAMN) Record (KAMN)
Temperature  
Mean Temperature 20 °F -  
Max Temperature 38 °F 31 °F 59 °F (2009)
Min Temperature 2 °F 10 °F -12 °F (1979)
Degree Days  
Heating Degree Days 46    
Moisture  
Dew Point 18 °F    
Average Humidity 87    
Maximum Humidity 97    
Minimum Humidity 73    
Precipitation  
Precipitation 0.00 in - - ()
Sea Level Pressure  
Sea Level Pressure 29.96 in    
Wind  
Wind Speed 3 mph (ESE)    
Max Wind Speed 15 mph    
Max Gust Speed 21 mph    
Visibility 7 miles    
Events Rain , Snow    
Averages and records for this station are not official NWS values.
T = Trace of Precipitation, MM = Missing Value Source: NWS Daily Summary

Daily Weather History Graph

Daily Weather History Graph

Search for Another Location

Airport:

Trip Planner

Search our weather history database for the weather conditions in past years. The results will help you decide how hot, cold, wet, or windy it might be!

Date:

Astronomy

Feb. 10, 2013 Rise Set
Actual Time 7:44 AM EST 6:02 PM EST
Civil Twilight 7:14 AM EST 6:32 PM EST
Nautical Twilight 6:40 AM EST 7:06 PM EST
Astronomical Twilight 6:07 AM EST 7:39 PM EST
Moon 7:31 AM EST (2/10) 6:56 PM EST (2/10)
Length of Visible Light 11h 18m
Length of Day
10h 18m
New Moon, 0% of the Moon is Illuminated
Feb 10
New Moon
Feb 17
First Quarter
Feb 25
Full
Mar 4
Last Quarter
Mar 11
New

Hourly Weather History & Observations

Time (EST) Temp. Windchill Dew Point Humidity Pressure Visibility Wind Dir Wind Speed Gust Speed Precip Events Conditions
12:15 AM 14.0 °F - 11.1 °F 88% 30.22 in 10.0 mi Calm Calm - N/A   Clear
12:34 AM 12.6 °F 6.5 °F 10.0 °F 90% 30.21 in 10.0 mi East 3.5 mph - N/A   Clear
12:55 AM 13.3 °F 7.3 °F 11.1 °F 91% 30.21 in 10.0 mi East 3.5 mph - N/A   Clear
1:15 AM 12.0 °F - 9.7 °F 90% 30.20 in 5.0 mi Calm Calm - N/A   Clear
1:34 AM 9.7 °F - 7.3 °F 90% 30.20 in 7.0 mi Calm Calm - N/A   Clear
1:55 AM 7.5 °F - 4.8 °F 89% 30.19 in 7.0 mi Calm Calm - N/A   Clear
2:15 AM 7.3 °F - 4.8 °F 89% 30.19 in 7.0 mi Calm Calm - N/A   Clear
2:35 AM 6.8 °F - 3.9 °F 88% 30.18 in 7.0 mi Calm Calm - N/A   Scattered Clouds
2:55 AM 6.8 °F - 4.1 °F 89% 30.18 in 10.0 mi Calm Calm - N/A   Clear
3:15 AM 5.9 °F - 2.7 °F 87% 30.18 in 7.0 mi Calm Calm - N/A   Clear
3:35 AM 3.4 °F - 0.1 °F 86% 30.17 in 10.0 mi Calm Calm - N/A   Clear
3:55 AM 4.8 °F - 1.8 °F 87% 30.17 in 7.0 mi Calm Calm - N/A   Clear
4:15 AM 3.7 °F - 0.5 °F 86% 30.16 in 7.0 mi Calm Calm - N/A   Clear
4:35 AM 3.6 °F - 0.5 °F 87% 30.16 in 10.0 mi Calm Calm - N/A   Clear
4:55 AM 3.0 °F - -0.2 °F 86% 30.16 in 10.0 mi Calm Calm - N/A   Clear
5:15 AM 5.0 °F - 2.3 °F 89% 30.16 in 10.0 mi Calm Calm - N/A   Clear
5:35 AM 5.2 °F - 2.1 °F 87% 30.16 in 10.0 mi Calm Calm - N/A   Clear
5:55 AM 6.1 °F - 3.2 °F 88% 30.16 in 10.0 mi Calm Calm - N/A   Clear
6:14 AM 6.6 °F - 3.7 °F 88% 30.16 in 10.0 mi Calm Calm - N/A   Clear
6:35 AM 5.5 °F - 2.3 °F 86% 30.15 in 10.0 mi Calm Calm - N/A   Clear
6:55 AM 5.4 °F - 2.1 °F 86% 30.14 in 10.0 mi Calm Calm - N/A   Clear
7:14 AM 4.1 °F - 0.9 °F 86% 30.15 in 7.0 mi Calm Calm - N/A   Clear
7:35 AM 2.7 °F - -1.1 °F 84% 30.14 in 10.0 mi Calm Calm - N/A   Clear
7:55 AM 3.2 °F - -0.2 °F 86% 30.14 in 7.0 mi Calm Calm - N/A   Clear
8:14 AM 5.7 °F - 2.8 °F 88% 30.14 in 7.0 mi Calm Calm - N/A   Scattered Clouds
8:35 AM 6.6 °F - 3.6 °F 87% 30.12 in 5.0 mi Calm Calm - N/A   Scattered Clouds
8:55 AM 10.4 °F - 8.1 °F 90% 30.11 in 5.0 mi Calm Calm - N/A   Clear
9:14 AM 11.1 °F - 8.6 °F 90% 30.10 in 4.0 mi Calm Calm - N/A   Clear
9:35 AM 14.9 °F - 12.9 °F 92% 30.06 in 5.0 mi Calm Calm - N/A   Clear
9:55 AM 15.6 °F 7.0 °F 13.6 °F 92% 30.05 in 5.0 mi North 5.8 mph - N/A   Scattered Clouds
10:14 AM 17.2 °F 10.2 °F 15.3 °F 92% 30.03 in 7.0 mi North 4.6 mph - N/A   Scattered Clouds
10:35 AM 19.8 °F 13.2 °F 18.3 °F 94% 30.05 in 10.0 mi East 4.6 mph - N/A   Overcast
10:55 AM - - - N/A% 30.05 in 10.0 mi SE 3.5 mph - N/A   Overcast
11:15 AM 22.3 °F 14.9 °F 20.8 °F 94% 30.06 in 10.0 mi SE 5.8 mph - N/A   Overcast
11:35 AM 23.9 °F 18.0 °F 21.2 °F 89% 30.04 in 10.0 mi SE 4.6 mph - N/A   Overcast
11:55 AM 25.7 °F 21.5 °F 20.7 °F 81% 30.05 in 10.0 mi SE 3.5 mph - N/A   Overcast
12:15 PM 26.6 °F 21.2 °F 20.7 °F 78% 30.02 in 10.0 mi SE 4.6 mph - N/A   Overcast
12:35 PM 27.5 °F 23.6 °F 21.0 °F 77% 30.00 in 10.0 mi ESE 3.5 mph - N/A   Overcast
12:55 PM 28.9 °F 23.9 °F 21.6 °F 74% 29.98 in 10.0 mi East 4.6 mph - N/A Snow Light Snow
1:15 PM 29.3 °F 22.3 °F 21.6 °F 73% 29.97 in 10.0 mi East 6.9 mph - N/A   Overcast
1:35 PM 29.8 °F 23.0 °F 22.5 °F 74% 29.95 in 10.0 mi East 6.9 mph - N/A   Overcast
1:55 PM 30.4 °F 25.6 °F 23.2 °F 75% 29.94 in 7.0 mi ESE 4.6 mph - N/A   Overcast
2:15 PM 30.9 °F 23.5 °F 23.7 °F 75% 29.93 in 10.0 mi ESE 8.1 mph - N/A   Overcast
2:35 PM 31.5 °F 23.5 °F 23.7 °F 73% 29.91 in 10.0 mi East 9.2 mph - N/A   Overcast
2:55 PM 32.0 °F 24.8 °F 24.4 °F 74% 29.89 in 10.0 mi ESE 8.1 mph - N/A   Overcast
3:15 PM 32.4 °F 24.6 °F 25.0 °F 74% 29.87 in 10.0 mi ESE 9.2 mph - N/A   Overcast
3:35 PM 32.9 °F 25.3 °F 25.7 °F 75% 29.86 in 7.0 mi East 9.2 mph - N/A Rain Light Rain
3:54 PM 32.9 °F 25.3 °F 26.6 °F 78% 29.84 in 5.0 mi East 9.2 mph - N/A   Overcast
4:15 PM 33.3 °F 27.1 °F 28.0 °F 81% 29.83 in 5.0 mi ESE 6.9 mph - N/A   Overcast
4:35 PM 34.0 °F 28.0 °F 28.4 °F 80% 29.83 in 7.0 mi ESE 6.9 mph - N/A   Overcast
4:54 PM 34.0 °F 27.2 °F 29.1 °F 82% 29.81 in 7.0 mi East 8.1 mph - N/A   Overcast
5:15 PM 34.0 °F 27.2 °F 29.7 °F 84% 29.79 in 7.0 mi ESE 8.1 mph - N/A   Overcast
5:35 PM 34.2 °F 26.2 °F 29.8 °F 84% 29.77 in 7.0 mi East 10.4 mph - N/A   Overcast
5:54 PM 34.3 °F 26.5 °F 30.0 °F 84% 29.76 in 7.0 mi East 10.4 mph - N/A   Overcast
6:15 PM 34.2 °F 26.8 °F 30.0 °F 85% 29.75 in 7.0 mi ESE 9.2 mph - N/A   Overcast
6:35 PM 34.5 °F 26.7 °F 30.2 °F 84% 29.74 in 10.0 mi ESE 10.4 mph - N/A   Overcast
6:54 PM 34.7 °F 26.4 °F 30.2 °F 84% 29.73 in 10.0 mi ESE 11.5 mph - N/A   Light Drizzle
7:15 PM 35.1 °F 26.4 °F 31.1 °F 85% 29.73 in 5.0 mi SE 12.7 mph - N/A Rain Light Rain
7:35 PM 34.9 °F 26.6 °F 32.0 °F 89% 29.72 in 3.0 mi SE 11.5 mph - N/A Rain Light Rain
7:54 PM 34.7 °F 25.1 °F 32.7 °F 92% 29.71 in 2.0 mi ESE 15.0 mph 19.6 mph N/A Snow Light Snow
8:15 PM 34.9 °F 26.6 °F 33.4 °F 94% 29.68 in 2.0 mi SE 11.5 mph 20.7 mph N/A Snow Light Snow
8:35 PM 35.1 °F 25.9 °F 33.8 °F 95% 29.67 in 2.5 mi SE 13.8 mph 19.6 mph N/A Rain Light Rain
8:54 PM 35.1 °F 26.9 °F 33.8 °F 95% 29.66 in 2.5 mi SE 11.5 mph - N/A Rain Light Rain
9:15 PM 35.2 °F 26.6 °F 34.0 °F 95% 29.65 in 2.5 mi SE 12.7 mph 18.4 mph N/A   Drizzle
9:35 PM 35.8 °F 28.3 °F 34.7 °F 96% 29.65 in 2.5 mi SE 10.4 mph - N/A Rain Light Rain
9:54 PM 35.8 °F 29.4 °F 34.7 °F 96% 29.64 in 2.5 mi SE 8.1 mph - N/A Rain Rain
10:15 PM 36.1 °F 29.3 °F 35.2 °F 97% 29.63 in 3.0 mi SSE 9.2 mph - N/A Rain Light Rain
10:35 PM 37.0 °F 29.8 °F 35.8 °F 95% 29.62 in 5.0 mi SSE 10.4 mph - N/A   Light Drizzle
10:54 PM 37.0 °F 30.4 °F 35.6 °F 95% 29.61 in 7.0 mi SSE 9.2 mph - N/A   Overcast
11:15 PM 36.7 °F 29.9 °F 35.2 °F 95% 29.59 in 7.0 mi SE 9.2 mph - N/A   Overcast
11:35 PM 36.7 °F 29.9 °F 35.4 °F 95% 29.58 in 7.0 mi South 9.2 mph - N/A   Overcast
11:55 PM 36.9 °F 30.7 °F 35.2 °F 94% 29.56 in 7.0 mi SSE 8.1 mph - N/A   Overcast